Theta_e
323 325 325 325 325 325 324 323 325 328 325 322 322 317 313 311 308 306 307 309 310 308 306 304 303 303 302 302 301 298 298 297 297 295 294 294 296 297 297 297 295 293 291
321 323 323 322 323 323 323 324 326 327 324 323 320 318 313 310 306 303 302 302 302 302 302 301 300 299 297 295 295 298 295 294 295 297 299 295 294 294 294 295 293 292 291
320 321 320 322 323 324 324 327 327 326 325 323 321 312 305 302 301 300 299 299 299 300 299 299 296 295 294 292 292 294 296 293 295 295 295 295 294 294 292 291 292 291 291
317 321 320 321 323 324 326 326 327 325 325 322 312 307 309 304 304 299 298 298 298 296 295 294 293 293 292 291 292 293 295 298 294 295 293 293 293 291 290 290 289 290 289
317 319 320 321 324 325 326 326 326 326 324 316 314 312 313 304 299 297 295 294 293 293 292 292 291 291 291 291 292 292 293 292 291 291 291 292 289 289 287 288 287 288 289
314 321 320 323 323 324 326 326 325 324 320 316 313 313 300 296 296 294 292 291 290 290 290 290 290 290 290 290 291 291 290 289 289 289 288 287 285 284 285 284 284 283 287
314 319 318 319 319 321 323 325 323 316 314 313 310 306 300 297 295 293 291 290 288 288 288 289 289 289 289 289 290 288 288 287 286 286 285 285 284 285 284 283 282 281 285
315 319 318 318 317 317 316 315 312 308 308 305 300 298 297 296 294 293 291 289 288 288 288 288 288 288 288 288 288 286 286 286 285 284 284 283 283 284 283 281 280 279 282
315 317 315 314 313 310 309 308 304 301 299 297 296 296 296 295 292 291 290 288 288 288 288 287 287 287 287 287 286 285 284 285 285 284 283 282 282 283 283 282 281 278 276
313 313 311 309 307 305 302 300 299 297 296 296 296 294 292 291 290 288 286 286 287 287 286 286 286 286 285 285 285 284 284 283 283 283 282 281 282 282 282 281 280 280 277
312 309 306 304 302 300 297 296 295 294 293 292 291 290 289 288 288 287 286 286 286 285 285 285 285 284 284 284 284 283 282 281 281 282 281 280 281 280 280 280 280 279 279
299 296 294 295 296 294 294 293 292 290 290 289 288 287 287 287 286 285 285 285 285 285 285 284 284 283 283 283 282 281 282 281 280 280 280 279 280 279 280 279 279 279 279
292 292 292 292 292 291 291 289 289 288 288 288 286 286 285 285 284 284 284 284 284 284 284 283 282 282 282 282 282 282 281 280 280 279 279 278 279 278 279 278 278 278 278
290 290 290 289 289 289 288 287 287 288 287 287 286 285 285 284 284 283 283 283 283 282 282 282 282 281 281 281 281 281 280 280 279 279 279 279 278 278 277 277 277 277 278
288 288 287 287 287 286 286 285 285 286 287 286 285 284 284 283 283 283 282 282 282 281 281 281 281 281 281 280 280 280 280 279 279 279 278 278 277 277 277 276 276 277 277
287 286 285 285 286 286 285 286 285 285 287 285 283 283 283 282 282 281 281 281 282 282 282 282 282 282 280 281 280 280 279 278 277 277 278 278 278 278 278 278 279 279 277
286 286 285 285 285 286 287 285 285 285 284 283 282 282 281 281 281 281 281 281 281 281 281 281 281 281 282 282 281 280 279 278 278 278 277 277 277 278 277 278 279 278 277
286 287 286 286 285 285 285 284 284 283 282 281 281 281 281 280 280 280 280 280 280 280 280 280 280 280 280 282 281 280 280 279 279 278 278 277 276 277 276 277 276 275 274
290 289 288 286 285 285 284 283 282 281 281 280 280 280 280 279 279 279 279 279 279 279 278 278 278 278 278 279 279 279 279 278 278 278 277 277 276 277 278 276 273 273 272
290 287 286 285 284 283 283 281 280 280 280 280 280 280 280 280 279 279 278 279 279 278 278 277 278 278 277 278 278 279 279 277 277 277 277 277 277 277 278 274 271 269 270
288 287 286 284 282 282 282 280 280 279 280 280 280 280 280 280 279 278 278 278 277 277 277 276 277 277 277 277 278 278 277 276 276 276 276 276 277 276 276 274 271 270 272
287 285 283 282 283 283 282 280 278 279 280 280 279 279 279 279 279 278 278 278 277 277 276 276 276 276 275 276 276 277 277 278 276 276 276 276 275 274 273 272 272 271 267
283 285 283 281 282 283 283 279 278 278 278 278 278 278 279 279 279 278 277 277 277 277 276 276 275 274 275 276 276 276 277 277 276 276 274 273 272 272 270 269 269 266 264
282 283 282 281 280 281 281 279 279 279 279 277 277 278 277 277 278 278 278 278 277 276 276 275 275 275 275 275 276 277 277 277 276 273 272 271 271 270 270 267 267 265 263
281 282 281 281 279 279 278 279 279 279 277 277 276 277 277 277 276 276 276 275 275 277 276 276 275 274 273 274 276 276 275 273 271 268 269 268 267 266 266 265 264 263 262
281 280 280 280 278 278 278 279 280 280 278 277 278 278 277 276 276 275 275 278 277 278 277 276 275 275 275 275 275 275 274 273 271 267 266 265 265 264 263 262 261 261 260
Wind_Speed
17 18 16 16 15 18 18 17 17 16 11 11 10 9 7 6 5 5 6 5 5 6 6 5 6 5 5 5 6 6 6 5 4 4 2 3 4 5 4 5 6 7 7
18 17 19 18 17 18 17 19 18 16 13 10 9 7 9 6 7 6 6 7 6 6 6 6 7 7 6 6 5 3 3 3 1 0 4 5 4 4 4 4 4 6 5
19 19 19 20 20 20 20 21 20 17 15 15 10 9 8 6 5 6 6 7 8 9 9 9 7 7 5 5 4 3 3 3 2 5 3 2 1 6 4 4 3 4 4
16 18 19 19 20 19 19 18 20 18 16 15 13 16 10 10 6 8 8 8 10 9 9 9 8 7 5 6 5 4 4 2 5 4 5 6 5 2 4 4 3 3 3
22 17 19 21 21 18 18 18 19 18 15 14 13 12 10 8 9 9 11 10 9 9 10 9 9 9 6 6 7 7 8 7 6 6 3 3 4 6 3 2 3 4 3
25 20 20 20 19 17 17 17 20 17 16 14 13 13 15 14 12 11 9 7 7 6 9 10 9 8 8 8 6 8 10 8 8 6 6 6 5 5 4 2 4 3 2
24 22 22 19 17 18 17 17 18 13 12 11 10 11 14 14 15 13 10 10 6 8 8 8 8 7 7 8 6 8 10 9 7 7 6 6 6 5 4 3 2 2 2
20 20 21 21 19 18 15 13 15 15 12 12 12 12 14 9 10 12 10 8 7 8 7 9 7 9 7 7 8 6 7 8 7 10 7 6 5 5 5 5 5 4 3
19 17 20 19 18 16 15 13 12 14 13 13 12 13 12 14 12 15 11 8 10 8 9 8 8 8 8 8 7 6 7 7 7 7 7 5 5 4 4 4 4 3 3
18 17 15 16 14 14 14 15 14 14 13 14 13 12 14 15 15 13 13 11 9 10 10 8 7 8 8 7 8 7 6 7 5 5 6 5 4 4 3 3 3 2 3
12 13 11 10 9 15 18 14 17 18 16 14 15 16 16 15 15 14 11 10 10 9 10 9 7 8 7 7 7 7 7 7 6 5 6 6 5 3 3 3 2 3 4
11 14 13 12 11 13 16 17 17 18 16 16 13 16 14 16 15 12 11 11 10 10 9 9 8 8 7 6 7 7 5 6 6 6 5 4 3 3 3 3 5 4 5
10 13 14 13 12 13 14 16 16 20 18 18 15 14 14 14 14 13 11 10 10 9 9 8 7 7 7 7 6 6 5 6 5 4 4 4 3 3 4 4 5 5 5
8 9 13 14 13 14 15 16 15 16 18 18 19 14 14 13 13 11 11 10 9 9 8 7 7 7 7 6 6 5 5 4 4 4 3 4 4 4 6 6 7 6 7
11 10 12 13 13 16 14 15 15 14 19 17 18 15 14 13 12 11 11 10 9 9 8 8 7 6 6 4 5 4 4 4 3 3 3 3 4 2 5 5 7 8 7
10 12 10 11 14 15 15 17 15 15 17 16 15 14 14 12 10 11 10 10 9 8 7 7 7 6 5 9 7 4 4 3 2 2 2 2 2 2 9 10 11 11 8
9 10 12 11 12 13 14 17 14 13 16 15 13 13 12 12 11 10 10 9 9 7 7 6 6 6 6 7 7 4 3 1 2 2 3 3 2 4 6 11 13 6 8
10 11 12 14 12 13 14 15 14 15 14 13 13 12 12 11 10 10 9 8 7 6 6 6 5 5 4 4 3 2 2 2 2 3 3 4 5 5 7 10 4 5 7
11 11 10 12 11 12 13 14 13 14 12 12 13 12 12 11 9 9 8 7 6 6 5 5 5 4 4 3 2 2 2 2 3 3 4 5 6 9 13 4 5 7 8
12 12 12 12 12 10 11 14 12 11 11 12 11 11 11 10 10 9 8 4 5 6 5 6 5 5 4 6 4 3 2 3 3 4 4 2 5 11 8 7 7 7 9
12 12 11 11 11 10 11 12 10 11 11 12 12 10 9 9 9 8 6 6 6 6 5 6 5 5 4 4 3 3 4 4 4 5 4 3 5 6 10 10 5 9 10
10 11 11 10 9 9 11 11 11 9 11 12 11 10 9 7 7 8 6 6 5 6 4 4 4 3 2 3 3 5 5 6 5 6 4 3 5 6 8 7 12 12 9
8 7 11 11 8 8 9 12 8 11 11 11 11 9 9 8 7 7 6 4 4 3 3 3 3 3 2 1 4 4 7 8 6 4 5 4 5 7 7 9 10 6 4
8 7 10 11 9 7 9 11 10 11 12 11 9 8 8 8 8 6 3 3 3 3 3 3 2 2 2 2 3 4 4 6 4 4 1 5 6 7 7 4 5 4 4
6 8 9 10 9 9 10 9 10 11 11 9 7 8 7 7 6 5 4 4 4 3 2 4 3 2 2 4 7 7 3 3 2 3 2 4 3 4 4 4 3 4 4
6 9 9 10 9 10 10 8 8 10 10 8 6 6 6 5 5 5 6 10 8 9 11 9 5 3 6 7 7 5 6 6 6 3 3 4 4 4 5 5 5 5 5
Wind_Direction
215 194 195 192 195 196 184 189 185 191 176 174 152 152 155 148 122 91 84 81 102 103 109 107 105 91 82 78 89 91 89 58 76 109 104 131 97 87 90 90 93 84 70
206 184 190 185 193 194 182 188 189 184 178 165 158 165 145 142 120 110 90 88 85 89 91 91 88 82 89 72 57 58 112 88 43 241 199 167 153 106 84 82 84 82 79
205 196 194 189 191 192 192 184 187 176 177 168 157 122 102 109 125 124 103 84 81 78 80 85 87 80 81 82 69 47 100 126 91 53 339 277 69 140 139 96 76 80 81
253 189 192 202 194 196 191 188 178 175 181 159 154 162 163 160 159 135 112 92 73 69 74 77 74 69 62 64 61 35 28 56 111 95 56 45 14 317 167 156 120 102 77
245 182 199 198 198 193 186 184 177 174 178 162 171 172 160 121 121 120 114 102 83 74 75 74 71 67 63 53 53 57 61 55 67 48 35 54 66 19 3 103 128 155 115
221 189 190 200 195 187 183 188 173 175 163 173 175 169 141 140 135 135 122 111 102 84 74 75 70 61 57 63 61 56 62 68 69 67 57 50 43 31 13 355 12 330 87
215 197 186 193 185 183 181 181 169 148 150 156 154 143 140 138 135 133 125 125 114 102 95 88 81 73 81 73 76 71 65 60 69 67 67 64 54 35 16 24 357 312 22
216 192 181 179 175 166 156 150 152 137 144 143 133 127 127 127 122 120 120 111 108 109 99 91 103 96 88 86 75 72 77 73 71 72 66 68 59 47 35 36 352 326 308
218 181 178 173 170 158 153 149 140 129 129 125 117 118 120 120 115 109 101 106 111 110 113 104 100 97 90 84 86 82 80 71 68 69 65 65 59 48 50 43 29 4 320
226 173 176 171 166 147 129 126 117 113 114 114 113 109 105 103 107 104 103 107 114 112 113 100 92 96 95 95 91 84 79 82 71 74 78 71 60 56 48 32 20 346 317
185 152 148 137 151 129 118 115 113 113 106 101 105 103 107 105 102 102 106 114 112 118 105 104 109 103 100 93 93 91 86 87 88 78 73 66 42 41 27 8 331 317 319
120 114 114 117 126 118 117 116 115 109 102 103 101 105 99 111 107 99 110 110 117 102 108 116 114 105 102 98 97 96 97 97 83 72 72 62 38 25 10 347 339 319 321
100 117 117 117 121 113 111 108 115 107 114 109 108 107 106 101 101 107 108 104 102 108 113 112 111 101 101 105 98 98 92 83 81 75 67 53 14 2 0 342 328 324 316
80 102 112 114 111 107 108 111 106 119 117 118 107 107 108 109 101 115 112 110 119 113 106 103 101 103 105 104 98 99 99 94 84 65 50 38 9 357 359 344 328 325 313
88 91 99 107 108 111 105 98 107 111 113 108 112 111 109 109 117 117 111 117 106 103 115 115 111 110 106 97 101 103 101 91 89 68 34 21 25 339 341 328 323 322 312
94 91 84 102 110 103 112 104 104 105 103 108 106 109 105 109 110 107 111 108 112 120 116 113 115 105 101 111 99 88 92 90 64 21 359 300 247 276 322 318 304 289 317
75 80 86 84 88 103 111 101 104 106 101 106 110 113 116 113 114 118 116 117 118 123 119 111 115 108 117 122 113 91 80 48 37 357 316 321 330 305 318 311 314 59 357
85 92 89 87 86 92 98 103 105 101 106 118 121 115 116 113 114 114 113 108 115 120 119 114 107 104 92 131 139 139 338 328 353 323 312 309 307 318 318 310 354 349 334
91 84 87 90 96 104 102 102 100 106 122 117 110 112 116 115 113 108 110 113 115 113 109 102 103 120 116 86 45 349 307 289 298 313 310 321 322 333 320 40 352 337 323
98 99 95 98 98 92 96 103 112 116 113 112 112 108 115 118 114 114 111 107 109 105 101 95 89 54 94 49 25 333 300 305 316 308 296 270 283 312 6 14 354 322 319
87 95 88 88 96 98 104 103 108 98 106 107 102 104 106 110 109 105 107 115 106 107 105 102 87 75 41 71 29 5 321 325 319 322 330 335 338 1 352 343 316 313 330
71 90 97 97 98 108 115 103 94 103 105 104 104 102 99 99 107 108 102 93 106 96 96 96 99 92 80 37 22 355 342 329 325 317 323 43 10 346 325 329 322 330 331
57 72 97 99 93 96 116 112 110 105 101 104 106 105 101 99 103 102 92 96 86 106 108 127 122 103 80 17 23 356 342 335 326 6 24 11 331 320 325 327 323 342 322
72 91 98 100 97 93 94 109 122 122 113 110 109 108 101 92 83 90 100 118 113 111 123 124 114 91 58 19 359 5 349 337 44 8 347 305 309 302 300 284 324 322 316
60 77 91 91 85 91 99 110 118 118 109 110 108 104 97 96 93 72 70 86 47 53 100 74 67 39 54 21 358 354 29 25 38 319 313 309 306 310 314 313 309 304 304
71 83 91 100 103 105 106 112 112 113 120 116 110 101 106 121 126 126 100 85 99 82 87 79 75 70 33 2 344 37 4 342 348 301 294 303 313 309 311 309 308 309 304